www.pogodaiklimat.ru

Погода и климат >> Архив погоды >> Австрия >> Лиенц


ПОГОДА в Лиенце

  • Прогноз погоды в Лиенце
  • Монитор погоды в Лиенце

АРХИВ ПОГОДЫ в Лиенце

Время (UTC), дата Ветер
(напр.,м/с)
 
Видим.   Явления Облачность Т
(С)
Тd
(С)
f
(%)
Тe
(С)
Тes
(С)
Комфортность P
(гПа)
Po
(гПа)
Тmin
(С)
Tmax
(С)
R
(мм)
R24
(мм)
S
(см)
16 16.08 ЮВ 5 н/о н/о +22.4 +10.3 46 +24 +24 комфорт 1013.3 938.9
17 16.08 В 3 н/о н/о +21.9 +10.3 48 +24 +24 комфорт 1013.6 939.0
18 16.08 Ю 1 н/о н/о +20.8 +10.6 52 +24 +24 комфорт 1014.6 939.7 +13.0 +24.6
19 16.08 В 1 н/о н/о +18.7 +10.5 59 +20 +20 1016.2 940.7
20 16.08 ЮЗ 1 н/о н/о +16.9 +11.7 71 +18 +18 1017.3 941.3
21 16.08 З 1 н/о н/о +16.2 +11.5 74 +17 +17 1018.2 941.9
22 16.08 штиль 0 н/о н/о +15.3 +10.8 75 +15 +15 1018.7 942.1
23 16.08 штиль 0 н/о н/о +15.2 +11.5 79 +15 +15 1019.0 942.4
00 17.08 З 1 н/о н/о +14.7 +11.0 78 +15 +15 1019.2 942.4
01 17.08 Ю 1 н/о н/о +13.9 +10.5 80 +14 +14 1019.3 942.3
02 17.08 СЗ 1 н/о н/о +12.3 +9.9 85 +12 +12 1019.3 941.9
03 17.08 СЗ 1 н/о н/о +12.2 +9.8 85 +12 +12 1019.4 942.0
04 17.08 СЗ 1 н/о н/о +12.6 +9.8 83 +13 +13 1019.4 942.1
05 17.08 СЗ 1 20 км 6/0
[Ac und]
+12.6 +10.1 85 +13 +13 1019.2 941.9 +12.3 +13.0
06 17.08 штиль 0 н/о н/о +13.5 +10.4 82 +13 +13 1019.1 942.0 +12.1 +20.9
07 17.08 ЮВ 1 н/о н/о +14.4 +10.6 78 +15 +15 1019.0 942.2
08 17.08 В 1 н/о н/о +15.8 +11.0 73 +17 +17 1018.5 942.1
09 17.08 В 1 н/о н/о +19.3 +10.8 58 +21 +21 комфорт 1016.9 941.5
10 17.08 ЮВ 1 н/о н/о +21.6 +11.6 53 +24 +24 комфорт 1015.7 940.9
11 17.08 В 1 н/о н/о +23.0 +11.5 48 +25 +25 комфорт 1014.3 940.0
12 17.08 В 2 20 км 5/0
[Ac trans Ci fib]
+24.7 +13.2 49 +27 +37 жарко 1013.1 939.3
13 17.08 В 1 н/о н/о +25.3 +13.1 47 +27 +27 жарко 1012.3 938.7
14 17.08 ЮВ 2 н/о н/о +25.7 +13.4 47 +28 +28 жарко 1011.6 938.2
15 17.08 ЮВ 3 н/о н/о +25.4 +14.2 50 +28 +28 жарко 1011.6 938.1
16 17.08 ЮВ 3 н/о н/о +24.7 +14.3 52 +27 +27 жарко 1011.5 937.9
17 17.08 ЮВ 3 н/о н/о +23.8 +14.1 55 +26 +26 жарко 1012.1 938.2
18 17.08 Ю 2 н/о н/о +22.7 +13.9 58 +26 +26 жарко 1012.6 938.4 +13.3 +26.7
19 17.08 ЮВ 2 н/о н/о +21.7 +14.3 63 +25 +25 комфорт 1013.5 939.0
20 17.08 штиль 0 н/о н/о +19.9 +14.9 73 +22 +22 комфорт 1014.5 939.5
21 17.08 СЗ 1 н/о н/о +18.9 +14.7 77 +21 +21 комфорт 1015.0 939.7
22 17.08 СЗ 1 н/о н/о +17.2 +14.2 83 +18 +18 1015.7 939.9
23 17.08 З 1 н/о н/о +16.5 +13.8 84 +17 +17 1016.2 940.2
00 18.08 З 1 н/о н/о +16.4 +13.5 83 +17 +17 1016.3 940.3
01 18.08 СВ 1 н/о н/о +15.7 +13.7 88 +16 +16 1016.6 940.4
02 18.08 Ю 1 н/о н/о +16.1 +13.3 83 +17 +17 1016.3 940.2
03 18.08 З 1 н/о н/о +15.2 +12.9 86 +16 +16 1016.5 940.1
04 18.08 СЗ 2 н/о н/о +15.7 +12.2 80 +16 +16 1016.2 940.0
05 18.08 штиль 0 30 км 1/0
[Ac trans]
+14.8 +12.3 85 +14 +15 1016.8 940.3 +14.4 +16.0
06 18.08 СЗ 1 н/о н/о +17.5 +12.6 73 +19 +19 1016.2 940.4 +14.4 +23.0
07 18.08 СЗ 1 н/о н/о +20.3 +12.6 61 +23 +23 комфорт 1015.2 940.2
08 18.08 В 1 н/о н/о +22.1 +13.3 57 +25 +25 комфорт 1014.4 939.9
09 18.08 ЮВ 1 н/о н/о +23.4 +14.2 56 +27 +27 душно 1013.4 939.3
10 18.08 ЮВ 2 н/о н/о +25.1 +14.7 52 +28 +28 жарко 1012.5 938.9
11 18.08 ЮВ 2 н/о н/о +26.9 +16.2 52 +30 +30 душно 1011.3 938.2
12 18.08 ЮВ 5 30 км 1/0
[Ac trans]
+28.3 +15.3 45 +31 +38 душно 1010.2 937.5
13 18.08 ЮВ 5 н/о н/о +29.2 +15.3 43 +32 +32 душно 1009.3 936.9
14 18.08 ЮВ 6 н/о н/о +28.9 +15.6 44 +32 +32 душно 1009.2 936.7
15 18.08 ЮВ 6 н/о н/о +28.8 +15.5 44 +32 +32 душно 1009.1 936.6
16 18.08 ЮВ 5 н/о н/о +27.6 +16.0 49 +31 +31 душно 1009.7 936.9
17 18.08 ЮВ 4 н/о н/о +25.9 +15.5 53 +29 +29 душно 1010.2 937.0
18 18.08 ЮВ 2 н/о н/о +24.2 +15.3 58 +27 +27 жарко 1011.2 937.5 +17.3 +29.4
19 18.08 Ю 3 н/о н/о +23.2 +15.3 61 +27 +27 душно 1012.4 938.4
20 18.08 Ю 3 н/о н/о +22.5 +15.3 64 +26 +26 жарко 1013.2 938.9
21 18.08 З 1 н/о н/о +21.2 +15.4 69 +24 +24 комфорт 1014.2 939.6
22 18.08 СЗ 2 н/о н/о +19.0 +15.4 80 +21 +21 комфорт 1015.3 940.0
23 18.08 штиль 0 н/о н/о +17.7 +14.9 84 +18 +18 1015.8 940.2
00 19.08 штиль 0 н/о н/о +16.9 +14.7 87 +17 +17 1016.1 940.2
01 19.08 штиль 0 н/о н/о +16.6 +14.6 88 +16 +16 1016.5 940.5
02 19.08 С 1 н/о н/о +15.7 +13.9 89 +16 +16 1016.6 940.4
03 19.08 З 1 н/о н/о +14.8 +13.5 92 +15 +15 1017.2 940.7
04 19.08 штиль 0 н/о н/о +14.9 +13.5 91 +15 +15 1016.6 940.2
05 19.08 С 1 н/о н/о +15.2 +13.6 90 +16 +16 1016.9 940.5
06 19.08 В 2 н/о н/о +16.9 +14.3 85 +17 +17 1016.9 941.0 +14.4 +24.5
07 19.08 штиль 0 н/о н/о +19.8 +14.8 73 +22 +22 комфорт 1016.4 941.2
08 19.08 Ю 1 н/о н/о +22.5 +15.9 66 +27 +27 душно 1015.5 941.1
09 19.08 ЮВ 2 н/о н/о +23.5 +15.6 61 +27 +27 душно 1014.9 940.8
10 19.08 ЮВ 2 н/о н/о +25.5 +15.7 55 +29 +29 душно 1014.0 940.4
11 19.08 В 4 н/о н/о +27.0 +16.3 52 +30 +30 душно 1012.9 939.8
12 19.08 ЮВ 3 20 км 8/8 1500 м
[Sc As op]
+25.9 +16.2 55 +29 +32 душно 1013.8 940.3
13 19.08 З 8
{17}
н/о н/о +22.3 +12.4 53 +25 +25 комфорт 1016.1 941.5
14 19.08 З 5
{15}
н/о н/о +22.3 +12.6 54 +25 +25 комфорт 1015.9 941.3
15 19.08 ЮЗ 1
{17}
н/о осадки н/о +18.5 +15.8 84 +20 +20 1018.1 942.5 3
16 19.08 В 1 н/о в посл. час осадки н/о +20.1 +16.5 80 +24 +24 комфорт 1017.2 942.1 0.3
17 19.08 ЮВ 1 н/о н/о +19.9 +16.8 82 +24 +24 комфорт 1017.1 942.0
18 19.08 ЮВ 1
{17}
н/о {осадки} н/о +18.9 +16.7 87 +21 +21 комфорт 1017.7 942.3 +16.5 +27.3 3
19 19.08 Ю 1 н/о н/о +17.6 +16.5 93 +19 +19 1018.9 943.1
20 19.08 СЗ 1 н/о н/о +16.6 +15.6 94 +17 +17 1019.6 943.4
21 19.08 С 1 н/о н/о +16.6 +15.7 94 +17 +17 1019.8 943.6
22 19.08 СЗ 2 н/о осадки н/о +17.3 +16.2 93 +18 +18 1020.4 944.4 1
23 19.08 ЮЗ 1 н/о в посл. час осадки н/о +17.2 +16.3 94 +18 +18 1020.3 944.2 2
00 20.08 штиль 0 н/о {осадки} н/о +16.6 +16.0 96 +16 +16 1020.5 944.3 3
01 20.08 СЗ 1 н/о н/о +16.2 +15.5 96 +17 +17 1020.4 944.1
02 20.08 Ю 1 н/о н/о +15.8 +15.2 96 +16 +16 1021.0 944.5
03 20.08 ЮЗ 1 н/о н/о +14.8 +14.3 97 +15 +15 1021.0 944.2
04 20.08 З 1 н/о н/о +15.0 +13.8 93 +15 +15 1021.4 944.6
05 20.08 З 1 н/о н/о +14.8 +14.0 95 +15 +15 1021.4 944.6
06 20.08 З 1 н/о н/о +15.6 +14.4 93 +16 +16 1021.5 944.9 +14.4 +19.1 3
07 20.08 штиль 0 н/о н/о +16.6 +14.6 88 +16 +16 1021.2 944.9
08 20.08 ЮВ 1 н/о н/о +17.0 +14.8 87 +18 +18 1021.0 944.8
09 20.08 ЮВ 1 н/о н/о +17.8 +14.8 83 +19 +19 1021.2 945.2
10 20.08 штиль 0 н/о н/о +18.8 +14.9 78 +20 +20 1020.8 945.1
11 20.08 Ю 1 н/о н/о +19.9 +15.3 75 +23 +23 комфорт 1020.0 944.6
12 20.08 ЮЗ 1 н/о н/о +20.6 +15.7 73 +25 +25 комфорт 1019.3 944.1
13 20.08 штиль 0 н/о н/о +22.8 +16.5 68 +27 +27 душно 1017.6 943.1
14 20.08 Ю 1 н/о н/о +23.0 +16.5 67 +28 +28 душно 1017.0 942.6
15 20.08 З 1 н/о н/о +24.2 +17.3 65 +28 +28 душно 1016.1 942.1 0.0
16 20.08 ЮЗ 1 н/о н/о +24.4 +17.3 65 +28 +28 душно 1015.8 941.9
17 20.08 ЮЗ 1 н/о н/о +23.8 +18.0 70 +28 +28 душно 1016.0 941.9
18 20.08 З 1 н/о н/о +22.3 +18.4 79 +28 +28 душно 1016.8 942.3 +15.2 +24.7 0.0
19 20.08 СЗ 1 н/о н/о +20.9 +17.3 80 +26 +26 душно 1017.6 942.7
20 20.08 СЗ 1 н/о н/о +20.2 +17.2 83 +24 +24 комфорт 1018.3 943.2
21 20.08 В 1 н/о н/о +18.8 +16.8 88 +21 +21 комфорт 1018.7 943.2
22 20.08 СВ 1 н/о н/о +17.6 +16.0 90 +19 +19 1019.5 943.6
23 20.08 штиль 0 н/о н/о +16.8 +15.7 93 +17 +17 1019.5 943.4
00 21.08 С 1 н/о н/о +15.9 +15.1 95 +17 +17 1020.0 943.6
01 21.08 ЮЗ 2 н/о н/о +17.3 +15.5 89 +18 +18 1020.4 944.3
02 21.08 СЗ 5 н/о н/о +16.3 +13.1 81 +15 +15 1021.1 944.7 0.0
03 21.08 З 4 н/о н/о +16.0 +12.6 80 +15 +15 1021.3 944.8 0.0
04 21.08 З 2 н/о н/о +16.1 +12.2 78 +16 +16 1021.8 945.2
05 21.08 СЗ 2 20 км 9/0
[Ac und]
+15.6 +12.9 84 +15 +16 1022.5 945.8 +15.4 +16.3
06 21.08 ЮВ 1 н/о н/о +16.4 +12.6 78 +17 +17 1023.0 946.4 +15.4 +22.6 0.0
07 21.08 В 1 н/о н/о +17.0 +12.9 77 +18 +18 1023.2 946.8
08 21.08 В 1 н/о н/о +18.6 +13.3 71 +20 +20 1022.9 946.9 0.0
09 21.08 ЮВ 2 н/о н/о +19.6 +12.6 64 +22 +22 комфорт 1022.6 946.9 0.0
10 21.08 СВ 1 н/о н/о +20.9 +12.6 59 +24 +24 комфорт 1022.2 946.8
11 21.08 штиль 0 н/о н/о +21.6 +11.8 54 +24 +24 комфорт 1021.9 946.7
12 21.08 СЗ 4 25 км 10/10 1500 м
[Sc]
+20.9 +12.8 60 +24 +24 комфорт 1022.1 946.7
13 21.08 СЗ 4 н/о н/о +19.7 +13.3 67 +21 +21 комфорт 1022.4 946.7 0.0
14 21.08 З 2 н/о н/о +20.0 +13.1 64 +22 +22 комфорт 1022.4 946.8 0.0
15 21.08 З 3 н/о н/о +19.9 +13.6 67 +22 +22 комфорт 1022.5 946.9 0.0
16 21.08 Ю 2 н/о н/о +19.5 +13.7 69 +22 +22 комфорт 1023.1 947.3 0.0
17 21.08 СЗ 1 н/о в посл. час осадки н/о +18.6 +14.9 79 +20 +20 1023.5 947.5 0.0
18 21.08 ЮВ 1 н/о {осадки} н/о +18.2 +14.6 80 +20 +20 1023.8 947.7 +16.3 +22.1 0.0
19 21.08 Ю 1 н/о н/о +17.4 +14.8 85 +18 +18 1024.9 948.5
20 21.08 В 2 н/о в посл. час осадки н/о +16.6 +15.0 90 +17 +17 1025.4 948.8 0.3
21 21.08 СЗ 1 н/о осадки н/о +16.4 +15.3 93 +17 +17 1025.7 949.0 0.5
22 21.08 В 1 н/о осадки н/о +16.0 +15.4 96 +17 +17 1025.6 948.8 1
23 21.08 ЮВ 1 н/о в посл. час осадки н/о +15.7 +15.4 98 +16 +16 1024.8 948.0 0.1
00 22.08 ЮВ 2 н/о {ливн. осадки} н/о +15.9 +15.4 97 +16 +16 1024.9 948.1 2
01 22.08 СЗ 1 н/о н/о +16.1 +15.4 96 +17 +17 1024.9 948.2
02 22.08 З 1 н/о н/о +16.0 +15.4 96 +17 +17 1024.7 948.0
03 22.08 ЮВ 1 н/о н/о +15.9 +15.4 97 +17 +17 1024.4 947.7
04 22.08 ЮВ 1 н/о н/о +15.9 +15.3 96 +17 +17 1024.3 947.6
05 22.08 ЮВ 1 8000 м {ливн. осадки} 10/10 300 м
[Frnb]
+16.0 +15.4 96 +17 +17 1024.5 947.8 +15.8 +16.1
06 22.08 Ю 1 н/о в посл. час осадки н/о +16.6 +15.7 94 +17 +17 1024.4 947.9 +15.7 +18.3 2
07 22.08 ЮВ 2 н/о н/о +17.9 +15.9 88 +18 +18 1023.4 947.3
08 22.08 ЮВ 2 н/о н/о +18.7 +15.7 83 +20 +20 1023.5 947.6
09 22.08 ЮВ 3 н/о н/о +19.1 +15.6 80 +21 +21 комфорт 1023.5 947.7
10 22.08 ЮВ 3 н/о н/о +20.9 +15.4 71 +25 +25 комфорт 1023.1 947.7
11 22.08 ЮВ 3 н/о н/о +22.1 +15.2 65 +26 +26 душно 1022.0 947.0
12 22.08 ЮВ 3 н/о н/о +23.5 +14.8 58 +26 +26 жарко 1021.1 946.5
13 22.08 ЮВ 3 н/о н/о +22.9 +15.0 61 +27 +27 душно 1020.9 946.2
14 22.08 Ю 1 н/о н/о +22.3 +15.0 63 +26 +26 жарко 1020.9 946.0
15 22.08 ЮВ 2 н/о н/о +23.3 +16.6 66 +28 +28 душно 1020.4 945.8
16 22.08 ЮВ 2 н/о н/о +22.6 +16.1 67 +27 +27 душно 1020.4 945.7
17 22.08 ЮВ 3 н/о н/о +21.2 +15.8 71 +24 +24 комфорт 1020.9 945.8
18 22.08 ЮВ 2 н/о н/о +19.6 +15.9 79 +22 +22 комфорт 1022.1 946.5 +16.3 +24.0
19 22.08 штиль 0 н/о н/о +19.6 +15.5 77 +21 +21 комфорт 1023.0 947.3
20 22.08 ЮЗ 1 н/о н/о +19.7 +15.4 76 +23 +23 комфорт 1023.5 947.8
21 22.08 ЮВ 1 н/о н/о +19.2 +15.5 79 +22 +22 комфорт 1023.8 948.0
22 22.08 В 1 н/о н/о +18.2 +15.3 83 +20 +20 1024.0 947.9
23 22.08 В 1 н/о н/о +17.6 +15.6 88 +19 +19 1024.4 948.1
00 23.08 ЮВ 1 н/о н/о +17.6 +15.4 87 +19 +19 1024.4 948.1
01 23.08 штиль 0 н/о н/о +17.2 +15.5 90 +17 +17 1024.6 948.2
02 23.08 ЮВ 1 н/о н/о +17.2 +15.6 90 +18 +18 1024.5 948.1
03 23.08 ЮВ 1 н/о н/о +17.3 +15.6 90 +18 +18 1024.4 948.0
04 23.08 В 1 н/о н/о +17.4 +15.6 89 +18 +18 1024.3 948.0
05 23.08 В 1 15 км 10/10 1500 м
[Sc diur, vesp]
+17.2 +15.8 91 +18 +18 1024.9 948.5 +17.2 +17.4
06 23.08 Ю 1 н/о в посл. час осадки н/о +17.3 +16.2 93 +18 +18 1024.9 948.5 +17.1 +20.0 0.4
07 23.08 СЗ 1 н/о н/о +18.4 +15.9 85 +20 +20 1024.0 948.0
08 23.08 ЮВ 1 н/о в посл. час осадки н/о +19.2 +16.5 84 +22 +22 комфорт 1023.6 947.8 0.1
09 23.08 В 2 н/о {осадки} н/о +19.6 +16.3 81 +22 +22 комфорт 1023.7 948.0 0.1
10 23.08 ЮВ 1 н/о н/о +21.0 +16.0 73 +26 +26 душно 1023.0 947.7
11 23.08 ЮВ 2 н/о н/о +21.3 +16.0 72 +25 +25 комфорт 1023.0 947.7
12 23.08 ЮВ 5 10 км 10/10 1020 м
[St As trans Ci fib]
+21.2 +16.0 72 +25 +25 комфорт 1022.9 947.6 0.1
13 23.08 ЮВ 4 н/о н/о +22.2 +16.1 68 +26 +26 душно 1022.1 947.1
14 23.08 ЮВ 5 н/о н/о +22.2 +15.9 67 +26 +26 душно 1021.7 946.8
15 23.08 ЮВ 4 н/о н/о +23.0 +16.2 66 +28 +28 душно 1020.9 946.2 0.0
16 23.08 ЮВ 5 н/о осадки н/о +19.4 +16.4 83 +21 +21 комфорт 1023.2 947.5 0.1

 

Местоположение метеостанции Лиенц (Австрия): широта 46.83 долгота 12.82 высота над уровнем моря 666 м.

В архиве по умолчанию представлена погода в Лиенце за последнюю неделю. Архивные данные за месяц целиком и за предыдущие месяцы, начиная с января 2011 года, Вы можете получить, выбрав интересующий диапазон дат из раскрывающегося списка и нажав кнопку "Ввод!".


*Определитесь, кто Вы:
робот инопланетянин человек

Внимание! Время в таблицах - всемирное. Для получения местного времени необходимо прибавить поправку, которая равна 1 ч.

Смотрите также архив погоды в соседних городах и на ближайших метеорологических станциях:

Погода в Кёчах-Маутен (Австрия) (22 км)
Погода в Деллах-им-Драутале (Австрия) (23 км)
Погода на Зоннблике (Австрия) (26 км)
Погода на Зоннблике АМС (Австрия) (26 км)
Погода в Зиллиане (Австрия) (32 км)
Погода в Мальнице (Австрия) (32 км)
Погода в Виргене (Австрия) (34 км)
Погода в Альпийском центре (Австрия) (36 км)
Погода в Гачаге (Австрия) (39 км)
Погода в Раурисе (Австрия) (45 км)

Пояснения к столбцам:

Ветер - указаны скорость ветра в м/с - средняя за 10 мин, порывы в срок и между сроками (в фигурных скобках) и направление, откуда дует ветер: С - северный, СВ - северо-восточный, В - восточный, ЮВ - юго-восточный, Ю - южный, ЮЗ - юго-западный, З - западный, СЗ - северо-западный.
Видимость - горизонтальная дальность видимости в метрах или километрах. При видимости от 1 до 10 км при отсутствии осадков обычно наблюдается дымка, при ухудшении видимости до 1 км и менее - туман. В сухую погоду видимость может ухудшаться дымом, пылью или мглою.
Явления - указаны атмосферные явления, наблюдавшиеся в срок или в последний час перед сроком; фигурными скобками обозначены явления, наблюдавшиеся между сроками (за 1-3 часа до срока); квадратными скобками обозначены град или гололедные отложения с указанием их диаметра в мм.
Облачность - указаны через наклонную черту общая и нижняя облачность в баллах и высота нижней границы облаков в метрах; квадратными скобками обозначены формы облаков: Ci - перистые, Cs - перисто-слоистые, Cc - перисто-кучевые, Ac - высококучевые, As - высокослоистые, Sc - слоисто-кучевые, Ns - слоисто-дождевые, Cu - кучевые, Cb - кучево-дождевые. Подробнее классификацию облаков см. в Атласе облаков (PDF).
T - Температура воздуха - температура, измеренная на высоте 2 м над землей.
Td - Температура точки росы - температура, при понижении до которой содержащийся в воздухе водяной пар достигнет насыщения.
f - Относительная влажность воздуха - влажноcть воздуха, измеренная на высоте 2 м над землей.
Te - Эффективная температура - температура, которую ощущает одетый по сезону человек в тени. Характеристика душности погоды. При расчете учитывается влияние влажности воздуха и скорости ветра на теплоощущения человека.
Tes - Эффективная температура на солнце - температура, которую ощущает человек, с поправкой на солнечный нагрев. Характеристика знойности погоды. Зависит от высоты солнца над горизонтом, облачности и скорости ветра. Ночью, в пасмурную погоду, а также при ветре 12 м/с и более поправка равна нулю.
P - Атмосферное давление - приведенное к уровню моря атмосферное давление.
Po - Атмосферное давление - измеренное на уровне метеостанции атмосферное давление.
Tmin - Минимальная температура - минимум температуры воздуха на высоте 2 м над землей.
Tmax - Максимальная температура - максимум температуры воздуха на высоте 2 м над землей.
R - Количество осадков - Количество выпавших осадков за период времени, мм. При наведении курсора мыши на число - период времени, за который выпало указанное количество осадков.
R24 - Количество осадков - Количество выпавших осадков за 24 часа, мм.
S - Снежный покров - Высота снежного покрова, см. При наведении курсора мыши на число - состояние снежного покрова и степень покрытия местности в баллах.